Погода в Мгле

Россия / Ненецкий автономный округ     66°29′55″N   44°26′57″E
темп.,
°C
ветер,
м/с
пор.,
м/с
влажн.,
%
обл.,
%
осадки,
мм/ч
давл.,
гПа
погр.,
м
26 сентября, вс
вс2600:00+7ююв61092100 0.5 1010423
03:00+7ююв5891100 1.7 1011416
06:00+7юв4793100 0.2 1013277
09:00+7юв4594100 0.4 1014242
12:00+8ююв2493100 0.3 1017232
15:00+8ююз118998 0.3 1019196
18:00+8юв119277 0.0 102112
21:00+8зюз1192100 0.0 102311
27 сентября, пн
пн2700:00+7ю119199 0.0 102410
03:00+8ююз228999 0.0 102613
06:00+7зюз229045 0.0 102716
09:00+9юз33855 0.0 1029165
12:00+10юз557689 0.0 1029381
15:00+10юз5777100 0.0 1030382
18:00+9юз5684100 0.0 103085
21:00+9юз5987100 0.0 1030202
28 сентября, вт
вт2800:00+8зюз71191100 0.0 1030221
03:00+8з6990100 0.0 1030218
06:00+8з4693100 0.0 1030148
09:00+9зсз3391100 0.0 1030116
12:00+10зсз228796 0.0 1031211
15:00+10зсз228674 0.0 1031194
18:00+8з119083 0.0 103110
21:00+8юз22899 0.0 103112
29 сентября, ср
ср2900:00+8юз449219 0.0 103144
03:00+7юз569483 0.0 1030104
06:00+7юз579462 0.0 1029118
09:00+9юз688742 0.0 1028202
12:00+11зюз79786 0.0 1027356
15:00+10з568336 0.0 1027160
18:00+8зсз568680 0.0 102782
21:00+9зсз5108439 0.0 1026140
30 сентября, чт
чт3000:00+8сз8129090 0.0 1026363
03:00+8ссз7986100 0.1 1027554
06:00+7с5685100 0.0 1028450
09:00+7с3487100 0.1 1030247
12:00+9св4580100 0.0 1031427
15:00+8св4567100 0.0 1032429
18:00+6всв4681100 0.0 1033180
21:00+5в348887 0.0 1034107